Home > Weather > Redlands > Past weeks

Flag for USA Past Weather in Redlands, California, USA — Yesterday and Last 2 Weeks

Now
102 °F

Sunny.


Feels Like: 102 °F
Forecast: 65 / 97 °F
Wind: 9 mph from West

Location: Norton Air Force Base / San Bern

Current Time: Jun 30, 2016 at 2:28:58 PM

Latest Report: Jun 30, 2016 at 2:04 PM


Visibility: 10 mi

Pressure: 29.83 "Hg

Humidity: 23%

Dew Point: 58 °F

Location of RedlandsLocation

Past Weather in Redlands — Graph

°F

Redlands Temperature Yesterday

Maximum temperature yesterday: 105 °F (at 2:25 PM)
Minimum temperature yesterday: 71 °F (at 5:44 AM)
Average temperature yesterday: 88 °F

High & Low Weather Summary for the Past Weeks

 TemperatureHumidityPressure
High115 °F (Jun 20, 1:05 PM)84% (Jun 25, 5:44 AM)30.06 "Hg (Jun 25, 5:44 AM)
Low59 °F (Jun 16, 6:54 AM)5% (Jun 19, 2:44 PM)29.80 "Hg (Jun 25, 5:04 PM)
Average84 °F36%29.93 "Hg
* Reported Jun 15 1:50 PM — Jun 30 1:04 PM, Redlands, Weather by CustomWeather, © 2016

Note: Actual official high and low records may vary slightly from our data, if they occured in-between our weather recording intervals... More about our weather records

Advertising

Redlands Weather History for the Previous 24 Hours

Scroll right to see more
 ConditionsComfort  
Time TempWeatherWind HumidityBarometerVisibility
1:04 PM
Thu, Jun 30
99 °FSunny.6 mph27%29.85 "Hg10 mi
12:47 PM99 °FHaze.7 mph27%29.86 "Hg5 mi
12:04 PM96 °FSunny.8 mph30%29.87 "Hg10 mi
11:45 AM93 °FSunny.3 mph32%29.88 "Hg10 mi
11:04 AM91 °FSunny.8 mph34%29.88 "Hg7 mi
10:45 AM90 °FSunny.5 mph35%29.89 "Hg7 mi
10:04 AM85 °FSunny.3 mph41%29.89 "Hg7 mi
9:50 AM84 °FSunny.6 mph43%29.89 "Hg5 mi
9:24 AM83 °FSunny.3 mph45%29.89 "Hg7 mi
9:05 AM81 °FSunny.No wind49%29.90 "Hg7 mi
8:44 AM79 °FDense fog.No wind53%29.90 "Hg1 mi
8:24 AM77 °FSunny.No wind56%29.90 "Hg7 mi
8:05 AM75 °FSunny.No wind59%29.89 "Hg7 mi
7:44 AM74 °FSunny.No wind61%29.89 "Hg7 mi
7:24 AM73 °FSunny.No wind64%29.89 "Hg7 mi
7:05 AM72 °FSunny.No wind67%29.89 "Hg7 mi
6:24 AM70 °FClear.No wind73%29.89 "Hg10 mi
6:04 AM69 °FClear.No wind74%29.89 "Hg10 mi
5:45 AM69 °FClear.3 mph74%29.89 "Hg10 mi
5:24 AM69 °FClear.5 mph72%29.88 "Hg10 mi
5:04 AM70 °FClear.5 mph70%29.88 "Hg10 mi
4:24 AM71 °FClear.6 mph67%29.87 "Hg10 mi
4:04 AM71 °FClear.5 mph66%29.87 "Hg10 mi
3:45 AM72 °FClear.3 mph65%29.87 "Hg10 mi
3:24 AM72 °FClear.5 mph64%29.87 "Hg10 mi
3:05 AM72 °FClear.6 mph63%29.87 "Hg10 mi
2:44 AM73 °FClear.5 mph61%29.87 "Hg10 mi
2:24 AM74 °FClear.7 mph60%29.87 "Hg10 mi
2:04 AM75 °FClear.6 mph57%29.87 "Hg10 mi
1:45 AM75 °FClear.5 mph57%29.87 "Hg10 mi
1:24 AM77 °FClear.3 mph53%29.88 "Hg10 mi
1:04 AM77 °FClear.3 mph53%29.88 "Hg10 mi
12:45 AM77 °FClear.3 mph54%29.88 "Hg10 mi
12:24 AM77 °FClear.5 mph53%29.88 "Hg10 mi
12:04 AM78 °FClear.5 mph51%29.89 "Hg10 mi
11:24 PM
Wed, Jun 29
80 °FClear.6 mph49%29.89 "Hg10 mi
11:04 PM80 °FClear.7 mph48%29.89 "Hg10 mi
10:24 PM83 °FClear.6 mph43%29.89 "Hg10 mi
10:04 PM83 °FClear.8 mph43%29.88 "Hg10 mi
9:24 PM85 °FClear.6 mph41%29.87 "Hg10 mi
9:04 PM86 °FClear.7 mph38%29.87 "Hg10 mi
8:44 PM88 °FSunny.6 mph36%29.86 "Hg10 mi
8:25 PM89 °FSunny.8 mph35%29.86 "Hg10 mi
8:04 PM90 °FSunny.7 mph32%29.85 "Hg10 mi
7:45 PM92 °FSunny.9 mph28%29.85 "Hg10 mi
7:25 PM93 °FSunny.12 mph26%29.85 "Hg10 mi
7:04 PM95 °FSunny.9 mph24%29.85 "Hg10 mi
6:50 PM95 °FSunny.12 mph25%29.84 "Hg7 mi
6:24 PM97 °FSunny.9 mph21%29.84 "Hg7 mi
6:04 PM99 °FSunny.13 mph19%29.83 "Hg10 mi
5:44 PM100 °FSunny.15 mph17%29.83 "Hg10 mi
5:24 PM101 °FSunny.15 mph17%29.83 "Hg10 mi
5:05 PM101 °FSunny.13 mph18%29.83 "Hg10 mi
4:44 PM103 °FSunny.10 mph17%29.83 "Hg10 mi
4:04 PM105 °FSunny.12 mph16%29.83 "Hg10 mi
3:44 PM104 °FSunny.10 mph16%29.84 "Hg10 mi
3:24 PM104 °FSunny.10 mph17%29.85 "Hg10 mi
3:05 PM105 °FSunny.13 mph17%29.85 "Hg10 mi
2:44 PM105 °FSunny.12 mph15%29.85 "Hg10 mi
2:25 PM105 °FSunny.8 mph15%29.85 "Hg10 mi
2:04 PM105 °FSunny.9 mph16%29.86 "Hg10 mi
Weather by CustomWeather, © 2016

See weather overviewHow to use our weather pages